Miscellaneous Local Product
Issued by NWS Hastings, NE

Home | Current Version | Previous Version | Graphics & Text | Print | Product List | Glossary On
Versions: 1 2 3 4 5 6 7 8 9 10 11 12 13 14 15 16 17 18 19 20 21 22 23 24 25 26 27 28 29 30 31 32 33 34 35 36 37 38 39 40 41 42 43 44 45 46 47 48 49 50
000
AXUS43 KGID 011702
MISGRI

GID CWA HOURLY WEATHER ROUNDUP
NATIONAL WEATHER SERVICE HASTINGS NE
1200 PM CDT WED OCT 01 2014

NOTE: "FAIR" INDICATES FEW OR NO CLOUDS BELOW 12,000 FEET WITH NO
SIGNIFICANT WEATHER AND/OR OBSTRUCTIONS TO VISIBILITY.

...SOUTH CENTRAL NEBRASKA...

CITY           SKY/WX    TMP DP  RH WIND       PRES   REMARKS
GRAND ISLAND   MOSUNNY   69  59  70 CALM      29.79R
HASTINGS       MOSUNNY   72  56  57 CALM      29.78S
KEARNEY        PTSUNNY   70  55  60 CALM      29.80S
ORD            MOSUNNY   72  51  47 N7        29.77S
YORK           SUNNY     72  63  73 CALM      29.76F
AURORA         MOSUNNY   73  60  64 CALM      29.77S
LEXINGTON      MOSUNNY   69  51  52 NW6       29.80S
HOLDREGE       MOSUNNY   72  49  44 CALM      29.79S
HEBRON         MOSUNNY   69  62  79 SE3       29.77S

...NEBRASKA PANHANDLE...

CITY           SKY/WX    TMP DP  RH WIND       PRES   REMARKS
CHADRON        CLOUDY    58  47  66 NW9       29.88S
ALLIANCE       CLOUDY    59  46  62 NW6       29.88R
SCOTTSBLUFF    MOSUNNY   60  48  64 VRB5      29.89F
SIDNEY         MOSUNNY   62  45  53 NE9       29.89F

...WESTERN AND NORTH CENTRAL NEBRASKA...

CITY           SKY/WX    TMP DP  RH WIND       PRES   REMARKS
VALENTINE      SUNNY     67  48  50 N10G18    29.83R
AINSWORTH      SUNNY     65  47  52 N10       29.82S
ONEILL         SUNNY     70  53  54 N13       29.78F
BROKEN BOW     SUNNY     73  51  46 N10       29.79S
IMPERIAL       PTSUNNY   65  46  50 N7        29.85R
NORTH PLATTE   MOSUNNY   70  48  45 VRB7      29.82S
MCCOOK         MOSUNNY   68  50  52 NE5       29.82S

...EASTERN NEBRASKA...

CITY           SKY/WX    TMP DP  RH WIND       PRES   REMARKS
NORFOLK        SUNNY     72  59  63 S6        29.76R
SO SIOUX CITY  MOSUNNY   69  60  73 S9        29.74R
TEKAMAH        SUNNY     73  60  63 S9        29.74F
COLUMBUS       SUNNY     72  61  68 SW3       29.77S
ALBION         SUNNY     71  54  55 W3        29.77S
OMAHA EPPLEY   PTSUNNY   69  62  78 VRB6      29.76S
OFFUTT AFB     CLOUDY    68  68  99 SE5       29.75S
MILLARD        CLOUDY    68  63  84 CALM      29.76S
LINCOLN        CLOUDY    67  61  81 CALM      29.77S
NEBRASKA CITY  CLOUDY    69  69  99 S3        29.75F
BEATRICE       MOSUNNY   72  64  76 CALM      29.76S
FALLS CITY     PTSUNNY   72  67  84 S8        29.75F

...NORTHERN KANSAS...

CITY           SKY/WX    TMP DP  RH WIND       PRES   REMARKS
GOODLAND       MOSUNNY   64  44  48 N8        29.87S
HILL CITY      MOSUNNY   69  59  70 NE5       29.80F
NORTON         SUNNY     68  55  64 SE3       29.79F
PHILLIPSBURG   SUNNY     75  59  57 CALM      29.78F
SMITH CENTER   SUNNY     73  59  60 CALM      29.78S
BELOIT         CLOUDY    66  64  94 NE5       29.76F
HAYS           CLOUDY    64  59  82 NE8       29.79S
RUSSELL        CLOUDY    66  62  87 NE8       29.77S
CONCORDIA      CLOUDY    69  65  86 N5        29.77S
SALINA         MOSUNNY   74  65  73 N6        29.76S
TOPEKA         PTSUNNY   77  68  73 S6        29.76F



USA.gov is the U.S. government's official web portal to all federal, state and local government web resources and services.